Olmida — ZCNU4 — position and weather

sailwx.info

Track history (hours):
 
Tides and Currents Weather Stations Pressure Air Temp Water Temp Dewpoint Dewpoint Depression Visibility Wind Speed Wind Dir Waves Ship Positions

Olmida

Last reported at 2014-Aug-01 10:33 UTC. Time now 2014-Aug-02 06:31 UTC.
Position N 37°23' E 009°54'.

; draft 3.2 m.

Type: Pleasure craft. MMSI: 319196000.

Date/timePositionNaut miles runAvg speedWind from/ knotsBaromVisibWave heightAir tempDewpointWater temp
2014-Aug-01 10:33N 37°23' E 009°54'8712.3
2014-Aug-01 03:30N 38°28' E 008°42'9613.8
2014-Jul-31 20:29N 39°58' E 007°57'17014.3
2014-Jul-31 08:33N 42°47' E 007°32'1414.0
2014-Jul-31 07:33N 43°01' E 007°30'1414.2
2014-Jul-31 06:33N 43°16' E 007°29'1414.4
2014-Jul-31 05:33N 43°30' E 007°26'14 1.3
2014-Jul-30 18:33N 43°44' E 007°25'  
2014-Jul-24 18:26N 43°44' E 007°26'1011.2
2014-Jul-24 17:33N 43°37' E 007°17'1413.2
2014-Jul-24 16:31N 43°28' E 007°01'1212.5
2014-Jul-24 15:34N 43°25' E 006°46'0 0.3
2014-Jul-24 14:26N 43°25' E 006°46'0 0.0
2014-Jul-24 13:32N 43°25' E 006°46'0 0.0
2014-Jul-24 12:32N 43°25' E 006°46'6 6.2
2014-Jul-24 11:33N 43°19' E 006°42'5 3.8
2014-Jul-24 10:13N 43°16' E 006°37'0 0.0
2014-Jul-24 09:31N 43°16' E 006°37'0 0.0
2014-Jul-24 08:31N 43°16' E 006°37'0 0.0
2014-Jul-24 07:25N 43°16' E 006°37'0 0.0
2014-Jul-24 06:28N 43°16' E 006°37'0 0.0
2014-Jul-24 05:22N 43°16' E 006°37'0 0.0
2014-Jul-24 04:16N 43°16' E 006°37'0 0.0
2014-Jul-24 02:10N 43°16' E 006°37'0 0.0
2014-Jul-24 00:19N 43°16' E 006°37'0 0.0
2014-Jul-23 21:28N 43°16' E 006°37'0 0.0
2014-Jul-23 20:22N 43°16' E 006°37'0 0.0
2014-Jul-23 19:28N 43°16' E 006°37'0 0.0
2014-Jul-23 18:22N 43°16' E 006°37'0 0.0
2014-Jul-23 17:22N 43°16' E 006°37'3 3.1
2014-Jul-23 16:33N 43°18' E 006°40'8 7.4
2014-Jul-23 15:25N 43°25' E 006°45'0 0.0
2014-Jul-23 14:28N 43°25' E 006°45'0 0.0
2014-Jul-23 13:28N 43°25' E 006°46'0 0.0
2014-Jul-23 12:25N 43°25' E 006°45'0 0.0
2014-Jul-23 11:04N 43°25' E 006°46'0 0.0
2014-Jul-23 10:16N 43°25' E 006°45'0 0.0
2014-Jul-23 09:31N 43°25' E 006°45'0 0.0
2014-Jul-23 08:28N 43°25' E 006°45'0 0.0
2014-Jul-23 07:28N 43°25' E 006°46'0 0.0
2014-Jul-23 06:33N 43°25' E 006°46'0 0.0
2014-Jul-23 05:27N 43°25' E 006°46'0 0.0
2014-Jul-23 04:33N 43°25' E 006°46'0 0.0
2014-Jul-23 03:21N 43°25' E 006°46'0 0.0
2014-Jul-23 02:21N 43°25' E 006°46'0 0.0
2014-Jul-23 01:33N 43°25' E 006°46'0 0.0
2014-Jul-23 00:21N 43°25' E 006°46'0 0.0
2014-Jul-22 23:33N 43°25' E 006°46'0 0.0
2014-Jul-22 22:33N 43°25' E 006°46'0 0.0
2014-Jul-22 21:33N 43°25' E 006°45'0 0.0
2014-Jul-22 20:33N 43°25' E 006°45'0 0.0
2014-Jul-22 19:33N 43°25' E 006°45'0 0.0
2014-Jul-22 18:33N 43°25' E 006°45'0 0.0
2014-Jul-22 17:33N 43°25' E 006°45'0 0.0
2014-Jul-22 16:27N 43°25' E 006°45'0 0.0
2014-Jul-22 15:30N 43°25' E 006°45'8 8.5
2014-Jul-22 14:33N 43°18' E 006°40'2 1.6
2014-Jul-22 13:31N 43°16' E 006°39'0 0.0
2014-Jul-22 12:31N 43°16' E 006°39'0 0.0
2014-Jul-22 11:31N 43°16' E 006°39'  
Track history (hours):
 
Tides and Currents Weather Stations Pressure Air Temp Water Temp Dewpoint Dewpoint Depression Visibility Wind Speed Wind Dir Waves Ship Positions

Olmida

Last reported at 2014-Aug-01 10:33 UTC. Time now 2014-Aug-02 06:31 UTC.
Position N 37°23' E 009°54'.

; draft 3.2 m.

Type: Pleasure craft. MMSI: 319196000.

Date/timePositionNaut miles runAvg speedWind from/ knotsBaromVisibWave heightAir tempDewpointWater temp
2014-Aug-01 10:33N 37°23' E 009°54'8712.3
2014-Aug-01 03:30N 38°28' E 008°42'9613.8
2014-Jul-31 20:29N 39°58' E 007°57'17014.3
2014-Jul-31 08:33N 42°47' E 007°32'1414.0
2014-Jul-31 07:33N 43°01' E 007°30'1414.2
2014-Jul-31 06:33N 43°16' E 007°29'1414.4
2014-Jul-31 05:33N 43°30' E 007°26'14 1.3
2014-Jul-30 18:33N 43°44' E 007°25'  
2014-Jul-24 18:26N 43°44' E 007°26'1011.2
2014-Jul-24 17:33N 43°37' E 007°17'1413.2
2014-Jul-24 16:31N 43°28' E 007°01'1212.5
2014-Jul-24 15:34N 43°25' E 006°46'0 0.3
2014-Jul-24 14:26N 43°25' E 006°46'0 0.0
2014-Jul-24 13:32N 43°25' E 006°46'0 0.0
2014-Jul-24 12:32N 43°25' E 006°46'6 6.2
2014-Jul-24 11:33N 43°19' E 006°42'5 3.8
2014-Jul-24 10:13N 43°16' E 006°37'0 0.0
2014-Jul-24 09:31N 43°16' E 006°37'0 0.0
2014-Jul-24 08:31N 43°16' E 006°37'0 0.0
2014-Jul-24 07:25N 43°16' E 006°37'0 0.0
2014-Jul-24 06:28N 43°16' E 006°37'0 0.0
2014-Jul-24 05:22N 43°16' E 006°37'0 0.0
2014-Jul-24 04:16N 43°16' E 006°37'0 0.0
2014-Jul-24 02:10N 43°16' E 006°37'0 0.0
2014-Jul-24 00:19N 43°16' E 006°37'0 0.0
2014-Jul-23 21:28N 43°16' E 006°37'0 0.0
2014-Jul-23 20:22N 43°16' E 006°37'0 0.0
2014-Jul-23 19:28N 43°16' E 006°37'0 0.0
2014-Jul-23 18:22N 43°16' E 006°37'0 0.0
2014-Jul-23 17:22N 43°16' E 006°37'3 3.1
2014-Jul-23 16:33N 43°18' E 006°40'8 7.4
2014-Jul-23 15:25N 43°25' E 006°45'0 0.0
2014-Jul-23 14:28N 43°25' E 006°45'0 0.0
2014-Jul-23 13:28N 43°25' E 006°46'0 0.0
2014-Jul-23 12:25N 43°25' E 006°45'0 0.0
2014-Jul-23 11:04N 43°25' E 006°46'0 0.0
2014-Jul-23 10:16N 43°25' E 006°45'0 0.0
2014-Jul-23 09:31N 43°25' E 006°45'0 0.0
2014-Jul-23 08:28N 43°25' E 006°45'0 0.0
2014-Jul-23 07:28N 43°25' E 006°46'0 0.0
2014-Jul-23 06:33N 43°25' E 006°46'0 0.0
2014-Jul-23 05:27N 43°25' E 006°46'0 0.0
2014-Jul-23 04:33N 43°25' E 006°46'0 0.0
2014-Jul-23 03:21N 43°25' E 006°46'0 0.0
2014-Jul-23 02:21N 43°25' E 006°46'0 0.0
2014-Jul-23 01:33N 43°25' E 006°46'0 0.0
2014-Jul-23 00:21N 43°25' E 006°46'0 0.0
2014-Jul-22 23:33N 43°25' E 006°46'0 0.0
2014-Jul-22 22:33N 43°25' E 006°46'0 0.0
2014-Jul-22 21:33N 43°25' E 006°45'0 0.0
2014-Jul-22 20:33N 43°25' E 006°45'0 0.0
2014-Jul-22 19:33N 43°25' E 006°45'0 0.0
2014-Jul-22 18:33N 43°25' E 006°45'0 0.0
2014-Jul-22 17:33N 43°25' E 006°45'0 0.0
2014-Jul-22 16:27N 43°25' E 006°45'0 0.0
2014-Jul-22 15:30N 43°25' E 006°45'8 8.5
2014-Jul-22 14:33N 43°18' E 006°40'2 1.6
2014-Jul-22 13:31N 43°16' E 006°39'0 0.0
2014-Jul-22 12:31N 43°16' E 006°39'0 0.0
2014-Jul-22 11:31N 43°16' E 006°39'  

Dump ship's entire track history